Location: Le Petit-Vavre
(46.5081°N, 1.5239°E)
Time: 11:33:33
(UTC+00:00)

FLOCK 4P 2 - Visible Passes

Search period start: 20 September 2021 00:00
Search period end: 30 September 2021 00:00
Orbit: 491 x 509 km, 97.4° (Epoch: 19 September)

Date Brightness Start Highest point End Pass type
(mag) Time Alt. Az. Time Alt. Az. Time Alt. Az.
20 Sep ? 20:43:34 14° N 20:43:34 14° N 20:44:10 10° N visible
21 Sep ? 20:23:47 12° NNE 20:23:47 12° NNE 20:24:08 10° NNE visible
23 Sep ? 21:18:53 10° NNW 21:18:53 10° NNW 21:18:55 10° NNW visible
24 Sep ? 20:59:06 10° N 20:59:06 10° N 20:59:09 10° N visible
